Location: ???????
(52.3000°N, 54.4667°E)
Time: 04:13:19
(UTC+00:00)

USA 267 - Pass Details

Date: 24 January 2020
Orbit: 1101 x 1107 km, 123.0° (Epoch: 22 February)

Event Time Altitude Azimuth Distance (km) Brightness Sun altitude
Exits shadow 16:42:58 57° 337° (NNW) 1,278 3.6 -34.6°
Drops below altitude 10° 16:48:46 10° 283° (WNW) 2,965 6.3 -35.5°
Sets 16:51:17 0° 280° (W) 3,924 7.2 -35.8°
